Location: Ku?niki
(51.4449°N, 17.8974°E)
Time: 01:13:50
(UTC+00:00)

SL-08 RB Rocket - Pass Details

Date: 18 September 2020
Orbit: 646 x 685 km, 97.8° (Epoch: 23 October)

Event Time Altitude Azimuth Distance (km) Brightness Sun altitude
Exits shadow 17:54:36 - 156° (SSE) 3,061 6.7 -10.0°
Rises 17:54:43 0° 156° (SSE) 3,018 6.7 -10.0°
Reaches altitude 10° 17:56:57 10° 154° (SSE) 2,103 5.9 -10.3°
Maximum altitude 18:01:30 67° 72° (ENE) 730 3.7 -11.0°
Drops below altitude 10° 18:06:03 10° 351° (N) 2,095 6.6 -11.7°
Sets 18:08:17 0° 349° (NNW) 3,006 7.5 -12.0°
